Powered by GoogleTranslate

Occupational Safety and Health Administration OSHA

Alert: Due to routine maintenance on the OSHA website, some pages may be temporarily unavailable.
To report an emergency, file a complaint with OSHA or ask a safety and health question, call 1-800-321-6742 (OSHA).

Accident Search Results

Description, Abstract, KeywordSICNAICSDate RangeOfficeInsp Nr
Keyword: "Rupture"AllAllAllAllAll

By Date

Results 161 - 180 of 589
Result Page: ... 4 5 6 7 8 9 10 11 12 13 ...
  # Summary Nr Event Date Report ID Fat SIC Event Description
161 200262285 02/09/2004 0627100 X 3993 Employee Dies When Crushed Between Column And Lift Basket
162 201067220 01/27/2004 0950632   4959 Employee Is Injured When Pressurized Hose Fails
163 201104593 01/19/2004 0950624   5999 Employee'S Eyes Are Injured By Chemical Spray
164 201165412 10/06/2003 0950641 X 5211 Employee Injured While Loading Steel Frame Gazebo
165 201066727 09/02/2003 0950632   7948 Employee Is Crushed By Machinery
166 201096708 07/24/2003 0950645   2084 Employee Is Burned When Hot Water Pipe Ruptures
167 200630945 06/17/2003 0316400 X 4922 Employee Struck By Ruptured Gas Line
168 201796935 05/11/2003 0950644   3081 Employee Receives Burns To Arm From Hot Plastic
169 202349569 05/09/2003 0352450   5093 Employee Struck By Tire Sidewall
170 201066362 05/02/2003 0950632   8211 Employee Injured In Fall
171 201157302 05/02/2003 0950633   1629 Employee Suffers Ruptured Intestine
172 201352093 05/01/2003 0419700 X 783 Employee Killed Due To Fall From Tree
173 201041365 04/15/2003 0953220 X 4214 Employee Dies Of Ruptured Aorta
174 200526705 04/15/2003 0751910 X 5153 Employee Dies From Chemical Burns
175 200052009 03/11/2003 0728900 X 134 Employee Dies From Being Struck By Tire Rim
176 200821866 12/26/2002 0521400   3086 Employees Receives Burns From Exploding Extruder
177 201881174 10/16/2002 0253630 X 8221 Employee Is Killed From Burns After Ruptured Steam Line
178 201156791 09/18/2002 0950633   7992 Employee Falls And Ruptures Spleen When Riding Golf Cart
179 201114931 09/16/2002 0950643   1791 Employee Is Injured In Fall From I-Beam
180 201406279 08/27/2002 0552651   1794 Employees Rupture Gas Main; No Injuries

Thank You for Visiting Our Website

You are exiting the Department of Labor's Web server.

The Department of Labor does not endorse, takes no responsibility for, and exercises no control over the linked organization or its views, or contents, nor does it vouch for the accuracy or accessibility of the information contained on the destination server. The Department of Labor also cannot authorize the use of copyrighted materials contained in linked Web sites. Users must request such authorization from the sponsor of the linked Web site. Thank you for visiting our site. Please click the button below to continue.

Close